Hourly Weather Bolshie Elbuzdovskie

Today, 18 June, Friday

Time Temperature Precipitation Wind Pressure Humidity
00:00 +18°C° 0 mm 2 mps 757 mmHg 93%
01:00 +18°C° 0 mm 2 mps 758 mmHg 94%
02:00 +18°C° 0 mm 2 mps 758 mmHg 95%
03:00 +18°C° 0 mm 1 mps 758 mmHg 95%
04:00 +18°C° 0 mm 2 mps 758 mmHg 94%
05:00 +18°C° 0 mm 2 mps 758 mmHg 94%
06:00 +18°C° 0 mm 2 mps 758 mmHg 93%
07:00 +20°C° 0 mm 2 mps 758 mmHg 88%
08:00 +21°C° 0 mm 3 mps 758 mmHg 82%
09:00 +22°C° 0 mm 3 mps 758 mmHg 76%
10:00 +24°C° 0 mm 3 mps 758 mmHg 74%
11:00 +25°C° 0 mm 3 mps 758 mmHg 71%
12:00 +26°C° 0 mm 3 mps 758 mmHg 69%
13:00 +26°C° 0 mm 3 mps 758 mmHg 67%
14:00 +26°C° 0 mm 3 mps 758 mmHg 66%
15:00 +27°C° 0 mm 2 mps 758 mmHg 65%
16:00 +27°C° 0 mm 2 mps 758 mmHg 66%
17:00 +27°C° 0 mm 2 mps 758 mmHg 68%
18:00 +27°C° 0 mm 2 mps 758 mmHg 69%
19:00 +25°C° 0 mm 2 mps 758 mmHg 75%
20:00 +24°C° 0 mm 2 mps 758 mmHg 82%
21:00 +21°C° 0 mm 2 mps 758 mmHg 88%
22:00 +21°C° 0 mm 2 mps 758 mmHg 89%
23:00 +20°C° 0 mm 2 mps 758 mmHg 89%

Tomorrow, 19 June, Saturday

Time Temperature Precipitation Wind Pressure Humidity
00:00 +20°C° 0 mm 2 mps 758 mmHg 90%
01:00 +20°C° 0 mm 3 mps 758 mmHg 88%
02:00 +19°C° 0 mm 3 mps 758 mmHg 87%
03:00 +19°C° 0 mm 3 mps 757 mmHg 85%
04:00 +19°C° 0 mm 3 mps 757 mmHg 84%
05:00 +20°C° 0 mm 4 mps 758 mmHg 82%
06:00 +20°C° 0 mm 4 mps 758 mmHg 81%
07:00 +22°C° 0 mm 5 mps 758 mmHg 76%
08:00 +23°C° 0 mm 6 mps 758 mmHg 71%
09:00 +26°C° 0 mm 7 mps 758 mmHg 65%
10:00 +27°C° 0 mm 7 mps 758 mmHg 61%
11:00 +28°C° 0 mm 8 mps 757 mmHg 57%
12:00 +29°C° 0 mm 8 mps 757 mmHg 53%
13:00 +31°C° 0 mm 8 mps 757 mmHg 52%
14:00 +31°C° 0 mm 8 mps 757 mmHg 51%
15:00 +32°C° 0 mm 8 mps 756 mmHg 50%
16:00 +31°C° 0 mm 8 mps 756 mmHg 51%
17:00 +29°C° 0 mm 8 mps 756 mmHg 53%
18:00 +29°C° 0 mm 7 mps 756 mmHg 54%
19:00 +28°C° 0 mm 8 mps 756 mmHg 53%
20:00 +27°C° 0 mm 8 mps 756 mmHg 51%
21:00 +26°C° 0 mm 8 mps 756 mmHg 49%
22:00 +24°C° 0 mm 8 mps 756 mmHg 46%
23:00 +24°C° 0 mm 8 mps 756 mmHg 44%

Day after tomorrow, 20 June, Sunday

Time Temperature Precipitation Wind Pressure Humidity
00:00 +23°C° 0 mm 7 mps 756 mmHg 42%
01:00 +22°C° 0 mm 7 mps 756 mmHg 41%
02:00 +22°C° 0 mm 7 mps 756 mmHg 40%
03:00 +21°C° 0 mm 7 mps 756 mmHg 39%
04:00 +20°C° 0 mm 6 mps 756 mmHg 46%
05:00 +19°C° 0 mm 5 mps 756 mmHg 54%
06:00 +18°C° 0 mm 4 mps 757 mmHg 61%
07:00 +20°C° 0 mm 5 mps 756 mmHg 60%
08:00 +22°C° 0 mm 6 mps 756 mmHg 58%
09:00 +23°C° 0 mm 6 mps 756 mmHg 57%
10:00 +26°C° 0 mm 6 mps 756 mmHg 55%
11:00 +27°C° 0 mm 6 mps 756 mmHg 53%
12:00 +28°C° 0 mm 6 mps 755 mmHg 52%
13:00 +30°C° 0 mm 6 mps 755 mmHg 49%
14:00 +32°C° 0 mm 5 mps 755 mmHg 46%
15:00 +33°C° 0 mm 4 mps 755 mmHg 43%
16:00 +33°C° 0 mm 3 mps 754 mmHg 47%
17:00 +34°C° 0 mm 3 mps 754 mmHg 50%
18:00 +34°C° 0 mm 2 mps 754 mmHg 54%
19:00 +31°C° 0 mm 3 mps 754 mmHg 55%
20:00 +29°C° 0 mm 4 mps 754 mmHg 56%
21:00 +27°C° 0 mm 6 mps 754 mmHg 57%
22:00 +27°C° 0 mm 6 mps 754 mmHg 52%
23:00 +26°C° 0 mm 6 mps 754 mmHg 48%

21 June, Monday

Time Temperature Precipitation Wind Pressure Humidity
00:00 +24°C° 0 mm 6 mps 755 mmHg 43%
01:00 +24°C° 0 mm 6 mps 755 mmHg 43%
02:00 +23°C° 0 mm 6 mps 755 mmHg 43%
03:00 +23°C° 0 mm 7 mps 755 mmHg 42%
04:00 +22°C° 0 mm 6 mps 755 mmHg 48%
05:00 +22°C° 0 mm 6 mps 755 mmHg 53%
06:00 +21°C° 0 mm 6 mps 755 mmHg 59%
07:00 +23°C° 0 mm 6 mps 754 mmHg 57%
08:00 +24°C° 0 mm 6 mps 754 mmHg 55%
09:00 +27°C° 0 mm 7 mps 754 mmHg 53%
10:00 +29°C° 0 mm 7 mps 754 mmHg 50%
11:00 +30°C° 0 mm 7 mps 754 mmHg 47%
12:00 +33°C° 0 mm 8 mps 754 mmHg 44%
13:00 +34°C° 0 mm 7 mps 754 mmHg 42%
14:00 +35°C° 0 mm 7 mps 753 mmHg 39%
15:00 +36°C° 0 mm 7 mps 753 mmHg 37%
16:00 +35°C° 0 mm 6 mps 753 mmHg 40%
17:00 +34°C° 0 mm 5 mps 753 mmHg 44%
18:00 +33°C° 0 mm 4 mps 753 mmHg 47%
19:00 +30°C° 0 mm 5 mps 754 mmHg 45%
20:00 +29°C° 0 mm 6 mps 754 mmHg 43%
21:00 +27°C° 0 mm 6 mps 754 mmHg 41%
22:00 +27°C° 0 mm 6 mps 754 mmHg 39%
23:00 +26°C° 0 mm 6 mps 754 mmHg 38%

22 June, Tuesday

Time Temperature Precipitation Wind Pressure Humidity
00:00 +26°C° 0 mm 6 mps 754 mmHg 36%
01:00 +25°C° 0 mm 5 mps 754 mmHg 36%
02:00 +23°C° 0 mm 5 mps 754 mmHg 37%
03:00 +22°C° 0 mm 5 mps 754 mmHg 37%
04:00 +22°C° 0 mm 5 mps 754 mmHg 44%
05:00 +21°C° 0 mm 4 mps 755 mmHg 51%
06:00 +20°C° 0 mm 4 mps 755 mmHg 58%
07:00 +22°C° 0 mm 5 mps 755 mmHg 55%
08:00 +25°C° 0 mm 5 mps 755 mmHg 51%
09:00 +27°C° 0 mm 6 mps 755 mmHg 48%
10:00 +29°C° 0 mm 6 mps 755 mmHg 45%
11:00 +30°C° 0 mm 6 mps 754 mmHg 41%
12:00 +33°C° 0 mm 7 mps 754 mmHg 38%
13:00 +34°C° 0 mm 6 mps 754 mmHg 36%
14:00 +35°C° 0 mm 5 mps 754 mmHg 35%
15:00 +36°C° 0 mm 5 mps 753 mmHg 34%
16:00 +36°C° 0 mm 4 mps 753 mmHg 38%
17:00 +36°C° 0 mm 3 mps 753 mmHg 43%
18:00 +36°C° 0 mm 2 mps 753 mmHg 47%
19:00 +32°C° 0 mm 2 mps 753 mmHg 51%
20:00 +30°C° 0 mm 2 mps 753 mmHg 55%
21:00 +27°C° 0 mm 3 mps 753 mmHg 58%
22:00 +27°C° 0 mm 3 mps 753 mmHg 60%
23:00 +26°C° 0 mm 3 mps 753 mmHg 61%

23 June, Wednesday

Time Temperature Precipitation Wind Pressure Humidity
00:00 +25°C° 0 mm 3 mps 753 mmHg 63%
01:00 +25°C° 0 mm 3 mps 754 mmHg 65%
02:00 +24°C° 0 mm 3 mps 754 mmHg 66%
03:00 +24°C° 0 mm 2 mps 754 mmHg 68%
04:00 +24°C° 0 mm 2 mps 754 mmHg 69%
05:00 +24°C° 0 mm 2 mps 755 mmHg 70%
06:00 +24°C° 0 mm 2 mps 755 mmHg 71%
07:00 +25°C° 0 mm 2 mps 755 mmHg 68%
08:00 +26°C° 0 mm 2 mps 756 mmHg 64%
09:00 +27°C° 0 mm 2 mps 756 mmHg 60%
10:00 +29°C° 0 mm 3 mps 756 mmHg 55%
11:00 +30°C° 0 mm 4 mps 756 mmHg 49%
12:00 +32°C° 0 mm 5 mps 755 mmHg 43%
13:00 +34°C° 0 mm 5 mps 755 mmHg 40%
14:00 +35°C° 0 mm 5 mps 755 mmHg 37%
15:00 +36°C° 0 mm 4 mps 755 mmHg 33%
16:00 +36°C° 0 mm 4 mps 755 mmHg 39%
17:00 +35°C° 0 mm 3 mps 754 mmHg 44%
18:00 +35°C° 0 mm 2 mps 754 mmHg 49%
19:00 +31°C° 0 mm 3 mps 754 mmHg 53%
20:00 +29°C° 0 mm 3 mps 754 mmHg 58%
21:00 +27°C° 0 mm 3 mps 754 mmHg 63%
22:00 +27°C° 0 mm 3 mps 753 mmHg 62%
23:00 +26°C° 0 mm 3 mps 753 mmHg 61%
Show more